TimeEST,TemperatureF,Dew PointF,Humidity,Sea Level PressureIn,VisibilityMPH,Wind Direction,Wind SpeedMPH,Gust SpeedMPH,PrecipitationIn,Events,Conditions,WindDirDegrees,DateUTC
12:24 AM,53.6,42.8,67,30.05,10.0,Calm,Calm,-,N/A,,Overcast,0,2012-12-16 05:24:00
12:46 AM,53.6,42.8,67,30.04,10.0,ESE,5.8,-,N/A,,Overcast,120,2012-12-16 05:46:00
12:53 AM,54.0,43.0,66,30.03,10.0,SE,5.8,-,N/A,,Overcast,130,2012-12-16 05:53:00
1:53 AM,54.0,44.1,69,30.01,10.0,East,3.5,-,N/A,,Overcast,100,2012-12-16 06:53:00
2:53 AM,54.0,45.0,72,30.00,10.0,ESE,3.5,-,N/A,,Overcast,110,2012-12-16 07:53:00
3:53 AM,54.0,46.0,75,29.98,10.0,ESE,4.6,-,N/A,,Overcast,110,2012-12-16 08:53:00
4:53 AM,54.0,46.9,77,29.98,10.0,ESE,3.5,-,N/A,,Overcast,110,2012-12-16 09:53:00
5:41 AM,53.6,46.4,77,29.99,10.0,ESE,4.6,-,N/A,,Overcast,110,2012-12-16 10:41:00
5:53 AM,54.0,48.0,80,29.97,10.0,ESE,6.9,-,N/A,,Overcast,120,2012-12-16 10:53:00
6:08 AM,55.4,48.2,77,30.00,10.0,Calm,Calm,-,N/A,,Overcast,0,2012-12-16 11:08:00
6:53 AM,55.0,48.9,80,29.97,10.0,ESE,4.6,-,N/A,,Overcast,120,2012-12-16 11:53:00
7:53 AM,55.0,50.0,83,29.99,10.0,Variable,3.5,-,N/A,,Overcast,0,2012-12-16 12:53:00
8:53 AM,55.0,50.0,83,29.99,10.0,ESE,3.5,-,N/A,,Mostly Cloudy,110,2012-12-16 13:53:00
9:00 AM,55.4,51.8,88,30.00,10.0,Variable,3.5,-,N/A,,Mostly Cloudy,0,2012-12-16 14:00:00
9:53 AM,57.0,52.0,83,29.99,10.0,SE,3.5,-,N/A,,Overcast,130,2012-12-16 14:53:00
10:53 AM,55.9,54.0,93,29.99,7.0,East,4.6,-,0.01,Rain,Light Rain,90,2012-12-16 15:53:00
11:42 AM,55.4,55.4,100,29.99,4.0,Calm,Calm,-,0.06,Rain,Light Rain,0,2012-12-16 16:42:00
11:53 AM,55.9,55.0,97,29.97,5.0,East,5.8,-,0.06,Rain,Light Rain,90,2012-12-16 16:53:00
12:28 PM,55.4,55.4,100,29.99,2.5,NNW,8.1,-,0.03,Rain,Light Rain,330,2012-12-16 17:28:00
12:51 PM,55.4,53.6,94,29.98,3.0,NE,6.9,-,0.05,Rain,Light Rain,40,2012-12-16 17:51:00
12:53 PM,55.0,54.0,96,29.96,3.0,ENE,6.9,-,0.05,Rain,Light Rain,60,2012-12-16 17:53:00
1:05 PM,53.6,53.6,100,29.97,5.0,East,5.8,-,0.00,Rain,Light Rain,90,2012-12-16 18:05:00
1:53 PM,55.0,55.0,100,29.93,3.0,East,6.9,-,0.05,Rain,Light Rain,100,2012-12-16 18:53:00
2:53 PM,54.0,54.0,100,29.93,3.0,ESE,3.5,-,0.07,Rain,Rain,120,2012-12-16 19:53:00
3:53 PM,54.0,54.0,100,29.93,5.0,Calm,Calm,-,0.03,Rain,Light Rain,0,2012-12-16 20:53:00
4:01 PM,53.6,53.6,100,29.94,5.0,Calm,Calm,-,0.01,Rain,Light Rain,0,2012-12-16 21:01:00
4:16 PM,53.6,53.6,100,29.94,4.0,ENE,3.5,-,0.02,Rain,Light Rain,60,2012-12-16 21:16:00
4:29 PM,53.6,53.6,100,29.93,4.0,ENE,3.5,-,0.04,Rain,Light Rain,70,2012-12-16 21:29:00
4:36 PM,53.6,53.6,100,29.94,4.0,ENE,3.5,-,0.05,Rain,Light Rain,70,2012-12-16 21:36:00
4:53 PM,53.1,53.1,100,29.91,4.0,East,3.5,-,0.06,Rain,Light Rain,90,2012-12-16 21:53:00
5:53 PM,53.1,53.1,100,29.91,6.0,East,4.6,-,0.04,Rain,Light Rain,90,2012-12-16 22:53:00
6:41 PM,53.6,53.6,100,29.96,2.5,Calm,Calm,-,0.09,Rain,Rain,0,2012-12-16 23:41:00
6:53 PM,53.1,53.1,100,29.96,3.0,Calm,Calm,-,0.11,Rain,Light Rain,0,2012-12-16 23:53:00
7:53 PM,53.1,53.1,100,29.94,3.0,Calm,Calm,-,0.10,Rain,Rain,0,2012-12-17 00:53:00
8:14 PM,53.6,53.6,100,29.97,2.5,Calm,Calm,-,0.03,Rain,Light Rain,0,2012-12-17 01:14:00
8:22 PM,53.6,53.6,100,29.96,3.0,Calm,Calm,-,0.04,Rain,Light Rain,0,2012-12-17 01:22:00
8:40 PM,53.6,53.6,100,29.96,2.5,Calm,Calm,-,0.08,Rain,Light Rain,0,2012-12-17 01:40:00
8:53 PM,53.1,53.1,100,29.94,1.8,Calm,Calm,-,0.10,Rain,Light Rain,0,2012-12-17 01:53:00
9:09 PM,51.8,51.8,100,29.97,2.5,Calm,Calm,-,0.02,Rain,Light Rain,0,2012-12-17 02:09:00
9:24 PM,53.6,53.6,100,29.96,3.0,Calm,Calm,-,0.04,Rain,Light Rain,0,2012-12-17 02:24:00
9:35 PM,51.8,51.8,100,29.96,2.0,Calm,Calm,-,0.05,Rain,Light Rain,0,2012-12-17 02:35:00
9:53 PM,52.0,52.0,100,29.94,3.0,SE,3.5,-,0.06,Rain,Light Rain,140,2012-12-17 02:53:00
10:53 PM,53.1,53.1,100,29.92,6.0,ESE,5.8,-,0.06,Rain,Light Rain,120,2012-12-17 03:53:00
11:53 PM,54.0,54.0,100,29.87,8.0,SE,12.7,19.6,0.05,Rain,Light Rain,140,2012-12-17 04:53:00